TimeEST,TemperatureF,Dew PointF,Humidity,Sea Level PressureIn,VisibilityMPH,Wind Direction,Wind SpeedMPH,Gust SpeedMPH,PrecipitationIn,Events,Conditions,WindDirDegrees,DateUTC
12:41 AM,28.4,26.6,93,30.08,1.2,ENE,4.6,-,0.03,Snow,Light Snow,70,2013-01-16 05:41:00
1:28 AM,28.4,26.6,93,30.07,0.8,ENE,5.8,-,0.03,Snow,Light Snow,60,2013-01-16 06:28:00
1:47 AM,28.4,26.6,93,30.06,0.8,East,6.9,-,0.05,Snow,Light Snow,80,2013-01-16 06:47:00
1:54 AM,28.0,26.1,92,30.12,0.8,ENE,6.9,-,0.06,Snow,Light Snow,60,2013-01-16 06:54:00
2:21 AM,28.4,26.6,93,30.05,1.2,NE,5.8,-,0.04,Snow,Light Snow,50,2013-01-16 07:21:00
2:29 AM,28.4,26.6,93,30.05,1.2,NE,4.6,-,0.04,Snow,Light Snow,50,2013-01-16 07:29:00
2:54 AM,28.0,27.0,96,30.10,1.8,NE,4.6,-,0.05,Snow,Light Snow,50,2013-01-16 07:54:00
3:54 AM,27.0,26.1,96,30.07,1.0,ENE,5.8,-,0.04,Snow,Light Snow,60,2013-01-16 08:54:00
4:03 AM,26.6,26.6,100,30.00,1.2,ENE,6.9,-,0.00,Snow,Light Snow,70,2013-01-16 09:03:00
4:19 AM,26.6,26.6,100,29.99,2.0,ENE,5.8,-,0.01,Snow,Light Snow,60,2013-01-16 09:19:00
4:40 AM,26.6,26.6,100,29.98,3.0,ENE,4.6,-,0.01,Snow,Light Snow,60,2013-01-16 09:40:00
4:54 AM,28.0,26.1,92,30.04,3.0,NNE,3.5,-,0.01,Snow,Light Snow,30,2013-01-16 09:54:00
5:19 AM,28.4,26.6,93,29.97,2.0,ENE,3.5,-,0.00,Snow,Light Snow,70,2013-01-16 10:19:00
5:30 AM,26.6,26.6,100,29.96,2.5,East,5.8,-,0.00,Snow,Light Snow,90,2013-01-16 10:30:00
5:52 AM,26.6,26.6,100,29.97,3.0,North,4.6,-,0.00,Snow,Light Snow,10,2013-01-16 10:52:00
5:54 AM,27.0,26.1,96,30.02,3.0,North,4.6,-,0.00,Snow,Light Snow,10,2013-01-16 10:54:00
6:09 AM,26.6,26.6,100,29.97,5.0,North,5.8,-,0.00,,Overcast,360,2013-01-16 11:09:00
6:54 AM,28.0,26.1,92,30.00,6.0,NE,5.8,-,0.00,,Overcast,40,2013-01-16 11:54:00
7:54 AM,28.0,26.1,92,29.99,10.0,NE,3.5,-,0.00,,Overcast,40,2013-01-16 12:54:00
8:34 AM,28.4,26.6,93,29.91,5.0,ESE,4.6,-,0.01,Snow,Light Snow,110,2013-01-16 13:34:00
8:54 AM,28.0,26.1,92,30.00,4.0,North,4.6,-,0.01,,Overcast,10,2013-01-16 13:54:00
9:13 AM,28.4,26.6,93,29.94,4.0,Calm,Calm,-,0.00,,Overcast,0,2013-01-16 14:13:00
9:45 AM,28.4,26.6,93,29.93,5.0,NNE,3.5,-,0.00,,Overcast,30,2013-01-16 14:45:00
9:54 AM,28.0,27.0,96,29.98,5.0,NE,3.5,-,0.00,,Overcast,50,2013-01-16 14:54:00
10:13 AM,28.4,26.6,93,29.92,2.5,Calm,Calm,-,0.00,,Overcast,0,2013-01-16 15:13:00
10:23 AM,28.4,26.6,93,29.91,3.0,Calm,Calm,-,0.00,,Overcast,0,2013-01-16 15:23:00
10:33 AM,28.4,26.6,93,29.90,2.0,Calm,Calm,-,0.01,,Overcast,0,2013-01-16 15:33:00
10:38 AM,28.4,26.6,93,29.89,1.8,ENE,3.5,-,0.01,Rain,Light Freezing Rain,70,2013-01-16 15:38:00
10:54 AM,28.9,28.0,96,29.92,2.0,East,3.5,-,0.01,Rain,Light Freezing Rain,80,2013-01-16 15:54:00
11:03 AM,28.4,28.4,100,29.86,2.5,ENE,3.5,-,0.00,,Overcast,70,2013-01-16 16:03:00
11:34 AM,28.4,28.4,100,29.85,1.8,Calm,Calm,-,0.00,,Overcast,0,2013-01-16 16:34:00
11:51 AM,28.4,28.4,100,29.84,1.2,Calm,Calm,-,0.01,Rain,Light Freezing Rain,0,2013-01-16 16:51:00
11:54 AM,28.9,28.0,96,29.89,1.2,Calm,Calm,-,0.01,Rain,Light Freezing Rain,0,2013-01-16 16:54:00
12:27 PM,30.2,28.4,93,29.85,1.5,Calm,Calm,-,0.01,Rain,Light Freezing Rain,0,2013-01-16 17:27:00
12:54 PM,30.0,28.9,96,29.88,2.0,Calm,Calm,-,0.01,Rain,Light Freezing Rain,0,2013-01-16 17:54:00
1:20 PM,30.2,28.4,93,29.84,3.0,Calm,Calm,-,0.01,,Overcast,0,2013-01-16 18:20:00
1:29 PM,30.2,30.2,100,29.82,1.8,Calm,Calm,-,0.01,Snow,Light Snow,0,2013-01-16 18:29:00
1:35 PM,30.2,28.4,93,29.82,1.5,Calm,Calm,-,0.01,Snow,Light Snow,0,2013-01-16 18:35:00
1:51 PM,30.2,30.2,100,29.83,1.8,SSW,3.5,-,0.01,Snow,Light Snow,200,2013-01-16 18:51:00
1:54 PM,30.9,30.0,96,29.88,1.8,SSW,3.5,-,0.01,Snow,Light Snow,200,2013-01-16 18:54:00
2:03 PM,30.2,28.4,93,29.83,2.0,SSW,3.5,-,0.00,Snow,Light Snow,200,2013-01-16 19:03:00
2:09 PM,30.2,30.2,100,29.83,2.0,South,3.5,-,0.00,Snow,Light Snow,180,2013-01-16 19:09:00
2:20 PM,30.2,30.2,100,29.83,2.0,South,3.5,-,0.00,,Overcast,180,2013-01-16 19:20:00
2:27 PM,30.2,30.2,100,29.83,2.5,South,4.6,-,0.00,,Overcast,180,2013-01-16 19:27:00
2:34 PM,30.2,30.2,100,29.83,3.0,South,4.6,-,0.00,,Overcast,180,2013-01-16 19:34:00
3:54 PM,32.0,30.9,96,29.89,4.0,SW,8.1,-,N/A,,Overcast,220,2013-01-16 20:54:00
4:32 PM,33.8,32.0,93,29.86,7.0,SSW,8.1,-,N/A,,Overcast,210,2013-01-16 21:32:00
4:54 PM,33.1,32.0,96,29.91,10.0,SW,6.9,-,N/A,,Overcast,220,2013-01-16 21:54:00
5:01 PM,33.8,30.2,87,29.86,10.0,SSW,9.2,-,N/A,,Overcast,210,2013-01-16 22:01:00
5:26 PM,33.8,30.2,87,29.87,10.0,SW,6.9,16.1,N/A,,Overcast,220,2013-01-16 22:26:00
5:54 PM,33.1,30.0,89,29.94,10.0,SW,5.8,-,N/A,,Overcast,220,2013-01-16 22:54:00
6:54 PM,32.0,28.0,85,29.95,10.0,SW,6.9,-,N/A,,Mostly Cloudy,220,2013-01-16 23:54:00
7:54 PM,30.9,28.0,89,29.96,10.0,SW,6.9,-,N/A,,Mostly Cloudy,220,2013-01-17 00:54:00
8:36 PM,30.2,28.4,93,29.91,10.0,SW,8.1,-,N/A,,Scattered Clouds,220,2013-01-17 01:36:00
8:54 PM,30.9,27.0,85,29.96,10.0,WSW,10.4,-,N/A,,Scattered Clouds,240,2013-01-17 01:54:00
9:54 PM,30.9,26.1,82,29.96,10.0,SW,8.1,-,N/A,,Clear,230,2013-01-17 02:54:00
10:54 PM,30.0,26.1,85,29.96,10.0,SW,8.1,-,N/A,,Clear,220,2013-01-17 03:54:00
11:54 PM,30.0,26.1,85,29.96,10.0,SSW,10.4,-,N/A,,Clear,210,2013-01-17 04:54:00